Tracking 18843 objects as of 21-November-2017
HD Live streaming from Space Station
objects crossing your sky now

SSU 3

Track SSU 3 now!
10-day predictions
SSU 3 is classified as:


NORAD ID: 8884
Int'l Code: 1976-038J
Perigee: 450.3 km
Apogee: 1,488.8 km
Inclination: 63.3 °
Period: 104.3 minutes
Semi major axis: 7340 km
RCS: Unknown
Launch date: April 30, 1976
Source: United States (US)
Launch site: AIR FORCE WESTERN TEST RANGE (AFWTR)
aabbcc
Your satellite tracking list
Your tracking list is empty




NASA's NSSDC Master Catalog

Two Line Element Set (TLE):
1 08884U 76038J   17316.74560290 0.00000350  00000-0  44867-4 0    07
2 08884  63.3392 268.5836 0707400 137.5903 222.4097 13.80418473    05
Source of the keplerian elements: McCants